Location: Alando
(42.3054°N, 9.2895°E)
Time: 12:20:11
(UTC+00:00)

Cosmos 2341 Rocket - Pass Details

Date: 09 April 2020
Orbit: 968 x 1005 km, 82.9° (Epoch: 05 June)

Event Time Altitude Azimuth Distance (km) Brightness Sun altitude
Rises 18:59:41 0° 358° (N) 3,736 7.4 -11.7°
Reaches altitude 10° 19:02:22 10° 5° (N) 2,785 6.6 -12.2°
Maximum altitude 19:08:27 44° 76° (ENE) 1,361 4.4 -13.2°
Enters shadow 19:13:32 15° 144° (SE) 2,446 5.6 -14.1°
